DELTA 1 DEB, 7174

Orbit data source: Space-Track

DELTA 1 DEB, 7174 is space debris in SSO originally from a launch on Tue, 06 Nov 1973 UTC launched from the Air Force Western Test Range (AFWTR). Debris objects in space refer to the collection of defunct objects orbiting the Earth. Examples of debris include non-operational satellites, rocket bodies, and fragments generated from explosions, collisions, or faulty payload assembly.

Loading next visibility...
Identifier
7174, 1973-086EL
Orbit
SSO
Country
Flag of USUS
Related business
Manufacturer
Unknown
Mission
Spacecraft
Bus & Motor
Unknown
Mass
Unknown
Launch date (UTC)
1973-11-06 (52 years ago)
Launch vehicle
Unknown
Launch site
Air Force Western Test Range (AFWTR)
Object type
Payload
Rocket body
Debris
Shape & HBR
Unknown shape, 0.1 m
Radar Cross Section
Small (<0.1 m²)

Expand to show TLE details & history
Last TLE update: 10 hours ago

TLE from 10 hours ago
0 DELTA 1 DEB
1 07174U 73086EL  25346.92891731 -.00000092  00000-0 -50263-3 0  9995
2 07174 102.0966  45.2879 0299609 125.1725  57.9181 12.08973283308913
Epoch: 2025-12-12T22:17Z
TLE epoch observation values (Epoch: 2025-12-12T22:17:38.455Z)
Latitude
-6.0583°
Longitude
167.71717°
Altitude
1,522.093 km
Speed
7.158 km/s
True Right ascension
14h 55m 57s
True Declination
-6° 01' 33"
Sunlit
Object was in daylight at epoch
Visualization orbit readout
Latitude
Unknown
Longitude
Unknown
Altitude
Unknown
Speed
Unknown
Apparent Right ascension
Unknown
Apparent Declination
Unknown
Sunlit
N/A
Visualization observer readout
Local Sidereal Time
07:09:16
Azimuth
Unknown
Elevation
Unknown
Doppler factor
Unknown
Orbital elements
Apogee altitude
1,878.739 km
Perigee altitude
1,398.364 km
Semi-major axis
8,016.689 km
Eccentricity
0.02996
Inclination
102.0966°
RAAN
45.2879°
Arg. of periapsis
125.1725°
True anomaly
60.88473°
Mean anomaly
57.9181°
Eccentric anomaly
59.39561°
Mean motion
3.02378 °/min
Orbital period
119.06 mins
BSTAR
-0.00050263
Loading maneuver chart data...
Computing Atmospheric mass density...
Loading historical data...
Loading historical data...
Loading historical data...
Loading historical data...
Loading historical data...
Loading historical data...
Loading historical data...

Documentation

Showing up to 5 results
|